ICEYE-X26

导读

ICEYE-X26是芬兰商业卫星运营商ICEYE旗下的合成孔径雷达(SAR)卫星,于2023年6月12日由美国发射入轨。该卫星具备最高0.5米的地面成像分辨率,支持聚束、条带、扫描多种成像模式,可覆盖从局部高精准监测到数百公里广域观测。依托SAR技术,它能不受昼夜、天气限制,实现全天时对地观测,可服务于自然灾害应急、海域船舶监测、地理测绘及国防侦察等多个领域,进一步扩充了ICEYE全球SAR卫星星座的观测能力。

基本信息
目录编号:
56961
目录名称:
ICEYE-X26
国际标识:
2023-084AF
轨道中心:
EARTH
卫星名称:
ICEYE-X26
卫星全名:
--
卫星状态:
已陨落 最后检测时间 2026-06-02
发射日期:
2023-06-12 UTC
国别 :
美国 (US)
星等 :
--
轨道信息
数据来源 国际轨道数据
星历时间: 2026-05-31T20:48:06+0800
轨道信息已过期102天
半长轴: 6554.854km
偏心率: 0.0014332
轨道倾角: 97.546°
近地点辐角 270.483°
升交点赤经 315.967°
平近点角 89.482°
近地点: 167.322km
远地点: 186.112km
周期: 88.025分钟
每日圈数: 16.359057
详细信息
使用方式:
暂无
与全量物体交会距离演化趋势
与全量物体交会风险概率演化趋势